Precipitable_Water
0.40 0.40 0.39 0.38 0.38 0.39 0.41 0.42 0.43 0.44 0.46 0.48 0.50 0.53 0.55 0.55 0.55 0.57 0.57 0.58 0.58 0.58 0.59 0.60 0.61 0.64 0.68 0.72 0.75 0.78 0.81 0.70 0.64 0.61 0.59 0.59 0.63 0.64 0.70 0.75 0.83 0.87 0.82 0.77 0.70 0.69 0.64 0.72 0.74 0.78 0.76 0.71 0.72 0.72 0.84 0.80 0.82 0.74 0.61 0.57 0.50 0.54 0.52 0.59 0.54 0.55 0.60 0.53 0.59 0.64 0.66 0.67 0.61 0.80 0.86 0.93 0.82 0.86 0.87 0.88 1.00 1.06 1.04 1.11 1.00 1.03 1.11 1.17
0.40 0.40 0.39 0.38 0.38 0.37 0.38 0.39 0.41 0.42 0.44 0.46 0.49 0.51 0.54 0.54 0.54 0.55 0.56 0.57 0.58 0.57 0.58 0.60 0.60 0.64 0.70 0.74 0.78 0.81 0.77 0.72 0.64 0.64 0.59 0.65 0.67 0.69 0.72 0.77 0.84 0.89 0.84 0.72 0.67 0.66 0.70 0.68 0.74 0.80 0.82 0.74 0.85 0.76 0.85 0.77 0.84 0.67 0.64 0.60 0.52 0.58 0.58 0.66 0.65 0.63 0.58 0.58 0.61 0.65 0.71 0.70 0.63 0.78 0.81 0.71 0.71 0.73 0.77 0.84 0.93 0.94 1.01 1.00 0.99 1.06 1.09 1.12
0.41 0.40 0.39 0.38 0.38 0.37 0.36 0.36 0.39 0.41 0.42 0.44 0.47 0.49 0.52 0.54 0.53 0.54 0.56 0.57 0.57 0.56 0.58 0.61 0.61 0.65 0.72 0.78 0.83 0.86 0.80 0.70 0.69 0.59 0.64 0.75 0.75 0.75 0.77 0.80 0.84 0.92 0.79 0.70 0.70 0.72 0.74 0.78 0.84 0.84 0.83 0.77 0.87 0.77 0.85 0.80 0.79 0.76 0.65 0.56 0.59 0.67 0.66 0.69 0.69 0.66 0.64 0.62 0.61 0.63 0.69 0.65 0.66 0.73 0.85 0.67 0.69 0.75 0.71 0.74 0.86 0.89 0.82 0.89 0.99 1.05 1.07 1.09
0.42 0.41 0.39 0.39 0.38 0.36 0.35 0.35 0.37 0.39 0.41 0.43 0.46 0.48 0.50 0.52 0.53 0.53 0.55 0.57 0.56 0.56 0.58 0.61 0.62 0.67 0.73 0.79 0.87 0.85 0.79 0.67 0.52 0.57 0.70 0.77 0.76 0.80 0.82 0.83 0.87 0.90 0.85 0.79 0.78 0.78 0.84 0.87 0.84 0.85 0.83 0.78 0.79 0.84 0.74 0.79 0.69 0.75 0.66 0.59 0.63 0.71 0.65 0.68 0.70 0.69 0.68 0.68 0.64 0.64 0.65 0.60 0.66 0.74 0.73 0.69 0.65 0.73 0.79 0.90 0.89 0.83 0.84 0.88 0.97 1.01 1.04 1.03
0.43 0.41 0.40 0.39 0.38 0.37 0.36 0.35 0.35 0.38 0.39 0.42 0.44 0.47 0.49 0.51 0.52 0.52 0.54 0.56 0.56 0.55 0.58 0.62 0.63 0.68 0.74 0.82 0.83 0.85 0.65 0.48 0.45 0.64 0.74 0.78 0.80 0.86 0.89 0.87 0.91 0.92 0.87 0.82 0.79 0.77 0.77 0.78 0.78 0.84 0.80 0.71 0.78 0.78 0.73 0.77 0.80 0.74 0.65 0.70 0.71 0.73 0.63 0.70 0.70 0.72 0.71 0.75 0.71 0.68 0.58 0.58 0.74 0.74 0.75 0.71 0.58 0.63 0.78 0.91 0.99 0.93 0.93 0.91 0.94 1.00 1.02 0.99
0.45 0.43 0.41 0.41 0.39 0.38 0.37 0.36 0.35 0.36 0.38 0.40 0.43 0.46 0.48 0.49 0.51 0.52 0.53 0.55 0.55 0.55 0.58 0.62 0.63 0.67 0.76 0.82 0.80 0.74 0.58 0.33 0.54 0.61 0.80 0.85 0.86 0.90 0.91 0.93 0.95 0.93 0.90 0.82 0.80 0.79 0.79 0.76 0.79 0.74 0.75 0.75 0.72 0.70 0.75 0.79 0.82 0.61 0.69 0.72 0.73 0.73 0.68 0.74 0.74 0.75 0.76 0.74 0.70 0.65 0.69 0.70 0.68 0.70 0.82 0.79 0.75 0.80 0.98 1.02 1.00 0.98 0.98 1.00 1.01 0.97 0.93 0.93
0.46 0.44 0.43 0.42 0.41 0.40 0.38 0.37 0.36 0.36 0.36 0.39 0.42 0.45 0.47 0.49 0.50 0.51 0.52 0.53 0.54 0.55 0.57 0.61 0.63 0.69 0.74 0.85 0.78 0.67 0.55 0.53 0.65 0.68 0.77 0.86 0.89 0.89 0.92 0.96 0.97 0.90 0.87 0.80 0.80 0.80 0.79 0.75 0.78 0.74 0.76 0.72 0.72 0.73 0.76 0.77 0.80 0.70 0.61 0.69 0.68 0.72 0.68 0.75 0.77 0.81 0.81 0.78 0.76 0.82 0.83 0.70 0.68 0.60 0.86 0.82 0.87 0.97 1.04 1.09 1.04 1.03 1.04 1.01 0.90 0.91 0.89 0.90
0.46 0.45 0.44 0.43 0.42 0.41 0.40 0.39 0.38 0.37 0.36 0.37 0.40 0.44 0.47 0.49 0.49 0.51 0.51 0.52 0.53 0.55 0.58 0.60 0.64 0.69 0.80 0.79 0.66 0.58 0.61 0.57 0.71 0.82 0.79 0.83 0.91 0.92 0.93 0.94 0.90 0.85 0.82 0.82 0.83 0.78 0.77 0.73 0.73 0.80 0.71 0.65 0.68 0.71 0.76 0.75 0.76 0.64 0.59 0.66 0.65 0.68 0.69 0.74 0.76 0.80 0.79 0.77 0.83 0.84 0.75 0.73 0.77 0.76 0.87 0.86 0.92 0.97 1.02 1.07 1.01 0.98 0.96 0.92 0.88 0.88 0.88 0.87
0.47 0.46 0.44 0.43 0.42 0.42 0.41 0.40 0.40 0.39 0.37 0.36 0.38 0.42 0.47 0.48 0.48 0.49 0.50 0.51 0.52 0.54 0.59 0.61 0.63 0.70 0.83 0.79 0.63 0.53 0.50 0.68 0.78 0.82 0.82 0.81 0.86 0.90 0.89 0.83 0.88 0.82 0.82 0.83 0.82 0.80 0.78 0.72 0.76 0.77 0.63 0.67 0.73 0.68 0.72 0.66 0.59 0.69 0.64 0.65 0.63 0.66 0.68 0.73 0.75 0.75 0.75 0.75 0.79 0.75 0.73 0.80 0.84 0.89 0.80 0.86 0.91 0.96 1.01 0.98 0.92 0.90 0.88 0.88 0.87 0.89 0.88 0.87
0.49 0.47 0.45 0.44 0.43 0.42 0.41 0.41 0.40 0.40 0.38 0.37 0.37 0.39 0.44 0.47 0.47 0.48 0.48 0.50 0.52 0.53 0.58 0.62 0.65 0.67 0.71 0.69 0.66 0.51 0.62 0.79 0.83 0.84 0.82 0.82 0.86 0.87 0.85 0.82 0.85 0.81 0.79 0.77 0.77 0.78 0.75 0.74 0.75 0.80 0.78 0.70 0.73 0.64 0.72 0.69 0.62 0.76 0.70 0.68 0.66 0.65 0.69 0.72 0.71 0.73 0.72 0.72 0.74 0.63 0.65 0.70 0.81 0.78 0.59 0.86 0.91 0.95 0.92 0.86 0.86 0.86 0.84 0.86 0.88 0.88 0.89 0.86
0.52 0.49 0.46 0.45 0.44 0.42 0.42 0.41 0.41 0.41 0.40 0.38 0.37 0.37 0.40 0.45 0.46 0.47 0.47 0.49 0.52 0.54 0.57 0.61 0.65 0.65 0.60 0.75 0.61 0.56 0.82 0.77 0.83 0.83 0.80 0.81 0.80 0.79 0.81 0.83 0.82 0.80 0.79 0.75 0.74 0.77 0.78 0.79 0.83 0.83 0.77 0.66 0.72 0.67 0.69 0.65 0.78 0.75 0.73 0.68 0.66 0.69 0.71 0.73 0.71 0.68 0.71 0.68 0.72 0.67 0.63 0.72 0.77 0.76 0.61 0.77 0.92 0.95 0.85 0.81 0.81 0.84 0.85 0.86 0.88 0.88 0.89 0.87
0.54 0.51 0.49 0.46 0.44 0.44 0.42 0.41 0.40 0.40 0.40 0.39 0.38 0.36 0.36 0.41 0.44 0.45 0.47 0.50 0.52 0.55 0.59 0.62 0.64 0.64 0.65 0.63 0.60 0.61 0.87 0.79 0.85 0.81 0.79 0.80 0.77 0.82 0.86 0.85 0.83 0.80 0.77 0.71 0.72 0.77 0.78 0.80 0.85 0.80 0.64 0.80 0.61 0.73 0.68 0.77 0.73 0.70 0.68 0.55 0.59 0.64 0.63 0.67 0.63 0.65 0.68 0.61 0.73 0.75 0.65 0.60 0.63 0.57 0.72 0.82 0.92 0.91 0.85 0.81 0.82 0.83 0.85 0.85 0.86 0.88 0.87 0.87
0.53 0.52 0.51 0.48 0.46 0.44 0.42 0.40 0.39 0.39 0.39 0.39 0.37 0.35 0.34 0.36 0.41 0.44 0.47 0.50 0.54 0.60 0.62 0.62 0.62 0.63 0.60 0.50 0.57 0.74 0.85 0.87 0.82 0.79 0.77 0.81 0.81 0.86 0.87 0.85 0.85 0.83 0.80 0.73 0.72 0.75 0.80 0.84 0.84 0.78 0.82 0.77 0.72 0.63 0.71 0.80 0.71 0.70 0.65 0.60 0.56 0.57 0.57 0.65 0.68 0.68 0.64 0.63 0.72 0.70 0.37 0.46 0.57 0.65 0.73 0.81 0.84 0.85 0.80 0.78 0.79 0.79 0.81 0.81 0.84 0.84 0.86 0.91
0.48 0.49 0.49 0.48 0.45 0.42 0.41 0.40 0.38 0.37 0.38 0.38 0.37 0.35 0.34 0.32 0.36 0.42 0.46 0.49 0.55 0.59 0.63 0.62 0.61 0.60 0.55 0.50 0.61 0.77 0.88 0.95 0.91 0.77 0.73 0.81 0.78 0.81 0.87 0.86 0.83 0.83 0.83 0.78 0.78 0.80 0.84 0.88 0.87 0.82 0.88 0.78 0.68 0.83 0.70 0.68 0.71 0.57 0.59 0.61 0.51 0.48 0.47 0.63 0.66 0.67 0.59 0.65 0.68 0.67 0.32 0.44 0.54 0.65 0.73 0.77 0.80 0.75 0.71 0.75 0.75 0.77 0.80 0.83 0.81 0.80 0.85 0.93
0.43 0.44 0.44 0.43 0.43 0.41 0.40 0.38 0.37 0.35 0.36 0.37 0.37 0.35 0.33 0.31 0.32 0.39 0.47 0.50 0.55 0.61 0.59 0.61 0.59 0.50 0.46 0.48 0.68 0.80 0.88 0.97 0.80 0.73 0.76 0.76 0.78 0.75 0.80 0.84 0.81 0.80 0.79 0.79 0.80 0.83 0.89 0.87 0.84 0.76 0.69 0.82 0.81 0.70 0.60 0.62 0.63 0.62 0.52 0.44 0.52 0.47 0.47 0.58 0.69 0.68 0.57 0.64 0.70 0.57 0.33 0.37 0.50 0.60 0.71 0.74 0.75 0.73 0.67 0.69 0.72 0.74 0.77 0.80 0.81 0.81 0.83 0.85
0.41 0.41 0.40 0.39 0.39 0.40 0.39 0.37 0.35 0.34 0.34 0.36 0.36 0.35 0.33 0.31 0.31 0.38 0.48 0.54 0.59 0.63 0.62 0.47 0.53 0.54 0.46 0.44 0.53 0.84 0.75 0.67 0.69 0.74 0.76 0.78 0.76 0.72 0.79 0.81 0.81 0.82 0.80 0.77 0.83 0.85 0.88 0.86 0.75 0.77 0.72 0.75 0.67 0.62 0.59 0.56 0.56 0.63 0.53 0.47 0.44 0.46 0.46 0.52 0.61 0.68 0.68 0.64 0.65 0.54 0.35 0.43 0.43 0.58 0.67 0.72 0.71 0.71 0.68 0.69 0.72 0.74 0.77 0.79 0.79 0.79 0.80 0.82
0.44 0.43 0.41 0.39 0.38 0.38 0.38 0.37 0.33 0.31 0.34 0.36 0.36 0.35 0.34 0.35 0.44 0.50 0.57 0.60 0.61 0.65 0.56 0.47 0.56 0.61 0.37 0.65 0.79 0.61 0.63 0.68 0.73 0.69 0.73 0.76 0.75 0.74 0.76 0.77 0.76 0.74 0.78 0.77 0.80 0.84 0.84 0.77 0.80 0.75 0.74 0.64 0.66 0.63 0.50 0.45 0.45 0.50 0.57 0.49 0.49 0.41 0.45 0.45 0.59 0.65 0.67 0.61 0.51 0.59 0.47 0.42 0.43 0.54 0.63 0.68 0.69 0.68 0.67 0.67 0.69 0.71 0.74 0.77 0.78 0.78 0.79 0.79
0.45 0.45 0.44 0.43 0.41 0.37 0.35 0.34 0.32 0.31 0.33 0.37 0.38 0.37 0.42 0.57 0.63 0.65 0.64 0.66 0.64 0.57 0.53 0.57 0.55 0.48 0.41 0.50 0.44 0.49 0.65 0.67 0.69 0.69 0.72 0.75 0.76 0.75 0.75 0.72 0.75 0.73 0.72 0.72 0.78 0.74 0.79 0.69 0.76 0.58 0.63 0.64 0.61 0.57 0.50 0.41 0.46 0.46 0.45 0.44 0.45 0.47 0.45 0.43 0.46 0.57 0.65 0.61 0.53 0.54 0.51 0.49 0.47 0.51 0.59 0.64 0.68 0.66 0.65 0.68 0.68 0.68 0.70 0.73 0.75 0.76 0.78 0.79
0.46 0.45 0.45 0.45 0.43 0.40 0.34 0.30 0.29 0.31 0.34 0.41 0.41 0.41 0.57 0.64 0.66 0.62 0.53 0.58 0.47 0.35 0.24 0.29 0.34 0.24 0.28 0.42 0.51 0.55 0.63 0.68 0.72 0.70 0.64 0.68 0.73 0.75 0.76 0.76 0.73 0.67 0.64 0.62 0.64 0.66 0.73 0.66 0.66 0.57 0.50 0.55 0.56 0.59 0.55 0.52 0.55 0.52 0.50 0.46 0.43 0.41 0.41 0.42 0.51 0.64 0.63 0.58 0.53 0.51 0.47 0.51 0.54 0.53 0.56 0.64 0.70 0.67 0.66 0.70 0.69 0.69 0.70 0.71 0.71 0.71 0.72 0.74
0.47 0.47 0.46 0.45 0.44 0.40 0.34 0.28 0.26 0.29 0.37 0.44 0.34 0.38 0.46 0.33 0.35 0.30 0.43 0.45 0.39 0.37 0.35 0.35 0.36 0.36 0.41 0.48 0.47 0.55 0.66 0.69 0.62 0.66 0.65 0.68 0.67 0.68 0.68 0.71 0.65 0.65 0.62 0.56 0.57 0.60 0.65 0.53 0.48 0.47 0.50 0.53 0.58 0.61 0.62 0.61 0.58 0.56 0.54 0.49 0.44 0.42 0.43 0.49 0.50 0.62 0.67 0.59 0.54 0.53 0.55 0.55 0.56 0.57 0.56 0.62 0.70 0.68 0.65 0.63 0.64 0.65 0.67 0.68 0.70 0.70 0.71 0.71
0.49 0.48 0.46 0.43 0.41 0.39 0.35 0.28 0.25 0.26 0.42 0.46 0.37 0.32 0.26 0.27 0.22 0.18 0.23 0.27 0.36 0.41 0.39 0.39 0.41 0.37 0.39 0.48 0.54 0.55 0.52 0.55 0.63 0.61 0.64 0.69 0.65 0.64 0.61 0.63 0.57 0.52 0.56 0.58 0.55 0.63 0.61 0.49 0.48 0.51 0.51 0.52 0.56 0.61 0.63 0.61 0.60 0.53 0.50 0.48 0.44 0.45 0.39 0.47 0.52 0.62 0.68 0.58 0.55 0.58 0.56 0.56 0.57 0.60 0.61 0.65 0.67 0.61 0.63 0.63 0.63 0.65 0.65 0.66 0.66 0.68 0.70 0.74
0.52 0.49 0.46 0.42 0.39 0.38 0.36 0.29 0.24 0.26 0.44 0.45 0.35 0.31 0.32 0.34 0.38 0.39 0.31 0.18 0.27 0.38 0.41 0.39 0.41 0.38 0.44 0.52 0.57 0.59 0.59 0.54 0.51 0.57 0.64 0.63 0.59 0.53 0.56 0.56 0.51 0.47 0.54 0.56 0.55 0.52 0.47 0.43 0.47 0.51 0.53 0.55 0.57 0.58 0.61 0.61 0.58 0.54 0.51 0.48 0.46 0.43 0.47 0.51 0.54 0.61 0.65 0.61 0.53 0.59 0.54 0.56 0.59 0.62 0.65 0.64 0.63 0.65 0.69 0.68 0.67 0.65 0.64 0.66 0.66 0.68 0.70 0.72
0.51 0.48 0.45 0.41 0.37 0.38 0.36 0.29 0.25 0.30 0.39 0.36 0.33 0.35 0.34 0.41 0.46 0.48 0.36 0.25 0.20 0.28 0.32 0.34 0.32 0.36 0.40 0.49 0.55 0.62 0.52 0.49 0.47 0.51 0.58 0.60 0.56 0.53 0.54 0.50 0.49 0.50 0.52 0.53 0.46 0.45 0.42 0.44 0.48 0.50 0.52 0.52 0.52 0.53 0.56 0.60 0.56 0.53 0.50 0.46 0.41 0.44 0.44 0.43 0.53 0.61 0.62 0.59 0.52 0.54 0.54 0.56 0.62 0.65 0.65 0.67 0.64 0.64 0.69 0.71 0.70 0.69 0.67 0.65 0.66 0.67 0.68 0.69
0.49 0.46 0.43 0.40 0.38 0.38 0.38 0.30 0.27 0.29 0.31 0.35 0.37 0.38 0.41 0.44 0.46 0.46 0.30 0.18 0.14 0.17 0.24 0.29 0.32 0.33 0.37 0.41 0.51 0.52 0.48 0.48 0.49 0.46 0.62 0.59 0.51 0.55 0.51 0.50 0.48 0.48 0.47 0.49 0.47 0.44 0.40 0.42 0.48 0.49 0.49 0.49 0.49 0.51 0.53 0.54 0.51 0.55 0.51 0.49 0.47 0.47 0.50 0.50 0.52 0.59 0.61 0.59 0.59 0.56 0.52 0.53 0.56 0.55 0.58 0.64 0.68 0.68 0.68 0.69 0.69 0.72 0.70 0.69 0.70 0.71 0.69 0.68
0.47 0.44 0.42 0.40 0.38 0.40 0.35 0.32 0.22 0.25 0.34 0.34 0.37 0.43 0.41 0.44 0.46 0.44 0.29 0.19 0.20 0.17 0.27 0.29 0.31 0.31 0.34 0.46 0.49 0.43 0.47 0.48 0.49 0.52 0.59 0.57 0.52 0.51 0.49 0.54 0.49 0.44 0.47 0.50 0.48 0.44 0.42 0.45 0.48 0.44 0.43 0.46 0.48 0.47 0.51 0.52 0.48 0.49 0.54 0.53 0.52 0.51 0.50 0.54 0.55 0.54 0.51 0.50 0.57 0.52 0.42 0.42 0.52 0.54 0.55 0.60 0.61 0.62 0.65 0.64 0.65 0.67 0.68 0.68 0.65 0.66 0.70 0.72
0.45 0.43 0.41 0.41 0.40 0.39 0.36 0.24 0.22 0.28 0.31 0.31 0.37 0.40 0.45 0.46 0.46 0.44 0.29 0.16 0.09 0.12 0.23 0.18 0.30 0.25 0.36 0.35 0.42 0.43 0.45 0.39 0.48 0.53 0.56 0.55 0.58 0.52 0.51 0.47 0.49 0.41 0.46 0.47 0.44 0.44 0.42 0.45 0.46 0.42 0.42 0.42 0.44 0.43 0.48 0.50 0.45 0.43 0.46 0.58 0.55 0.53 0.53 0.54 0.53 0.52 0.43 0.42 0.53 0.60 0.41 0.38 0.51 0.49 0.53 0.56 0.56 0.57 0.62 0.61 0.63 0.65 0.67 0.68 0.66 0.67 0.69 0.71
0.42 0.43 0.43 0.42 0.40 0.42 0.27 0.22 0.27 0.29 0.26 0.29 0.36 0.41 0.45 0.47 0.48 0.41 0.24 0.18 0.11 0.20 0.16 0.23 0.22 0.27 0.30 0.34 0.38 0.42 0.30 0.35 0.46 0.49 0.47 0.53 0.50 0.59 0.48 0.46 0.47 0.48 0.49 0.50 0.44 0.38 0.44 0.42 0.42 0.42 0.40 0.41 0.40 0.38 0.47 0.49 0.44 0.40 0.53 0.60 0.57 0.56 0.54 0.55 0.55 0.53 0.50 0.55 0.59 0.60 0.51 0.40 0.39 0.47 0.54 0.56 0.53 0.54 0.56 0.58 0.61 0.63 0.64 0.65 0.66 0.67 0.68 0.70
0.41 0.44 0.44 0.43 0.40 0.43 0.34 0.32 0.28 0.25 0.28 0.31 0.38 0.41 0.47 0.48 0.45 0.47 0.20 0.08 0.05 0.25 0.20 0.22 0.23 0.38 0.35 0.38 0.41 0.38 0.39 0.44 0.37 0.43 0.51 0.54 0.58 0.54 0.49 0.48 0.46 0.45 0.47 0.45 0.34 0.41 0.41 0.37 0.38 0.37 0.38 0.38 0.35 0.43 0.48 0.50 0.44 0.45 0.55 0.58 0.53 0.53 0.57 0.58 0.55 0.53 0.54 0.51 0.44 0.50 0.54 0.41 0.37 0.46 0.55 0.54 0.47 0.50 0.52 0.55 0.58 0.61 0.63 0.64 0.66 0.68 0.69 0.71
0.42 0.44 0.44 0.44 0.42 0.40 0.42 0.37 0.31 0.23 0.28 0.34 0.38 0.44 0.46 0.49 0.42 0.32 0.17 0.07 0.24 0.29 0.38 0.24 0.36 0.34 0.34 0.37 0.37 0.40 0.42 0.43 0.38 0.47 0.55 0.59 0.60 0.55 0.45 0.46 0.47 0.47 0.48 0.45 0.38 0.39 0.41 0.40 0.38 0.38 0.36 0.33 0.39 0.45 0.48 0.48 0.44 0.53 0.57 0.59 0.57 0.56 0.57 0.56 0.53 0.51 0.52 0.48 0.40 0.45 0.51 0.37 0.35 0.44 0.47 0.52 0.47 0.44 0.49 0.53 0.56 0.59 0.60 0.61 0.64 0.69 0.70 0.72
0.42 0.43 0.44 0.45 0.43 0.36 0.39 0.40 0.30 0.27 0.32 0.37 0.42 0.49 0.50 0.44 0.34 0.18 0.11 0.06 0.29 0.26 0.29 0.32 0.28 0.28 0.32 0.30 0.32 0.39 0.40 0.42 0.45 0.50 0.53 0.51 0.55 0.56 0.52 0.54 0.46 0.44 0.43 0.45 0.42 0.41 0.41 0.44 0.43 0.37 0.34 0.35 0.37 0.43 0.45 0.48 0.47 0.57 0.58 0.53 0.54 0.55 0.56 0.58 0.57 0.53 0.48 0.40 0.41 0.48 0.49 0.43 0.32 0.39 0.41 0.42 0.41 0.45 0.49 0.53 0.57 0.59 0.60 0.61 0.64 0.67 0.69 0.69
0.39 0.40 0.41 0.46 0.37 0.38 0.38 0.29 0.29 0.30 0.34 0.39 0.49 0.52 0.46 0.35 0.23 0.14 0.08 0.08 0.29 0.32 0.34 0.31 0.27 0.32 0.28 0.26 0.25 0.32 0.40 0.41 0.43 0.47 0.45 0.49 0.47 0.50 0.48 0.44 0.48 0.42 0.41 0.41 0.40 0.40 0.40 0.40 0.38 0.39 0.41 0.39 0.43 0.43 0.50 0.51 0.52 0.51 0.49 0.49 0.48 0.49 0.53 0.51 0.51 0.52 0.38 0.36 0.43 0.50 0.48 0.47 0.30 0.32 0.41 0.44 0.49 0.49 0.49 0.49 0.52 0.54 0.56 0.59 0.63 0.66 0.67 0.67
0.36 0.37 0.38 0.40 0.41 0.46 0.32 0.27 0.30 0.33 0.38 0.45 0.50 0.41 0.34 0.16 0.24 0.11 0.08 0.28 0.19 0.29 0.31 0.30 0.32 0.32 0.30 0.29 0.26 0.27 0.32 0.36 0.40 0.44 0.42 0.43 0.42 0.40 0.42 0.38 0.40 0.34 0.32 0.35 0.34 0.38 0.35 0.36 0.39 0.38 0.42 0.38 0.41 0.42 0.49 0.51 0.50 0.48 0.48 0.46 0.39 0.36 0.40 0.34 0.42 0.36 0.36 0.35 0.43 0.49 0.47 0.41 0.36 0.38 0.41 0.44 0.45 0.47 0.50 0.52 0.52 0.52 0.53 0.57 0.61 0.64 0.67 0.70
0.31 0.29 0.33 0.34 0.40 0.39 0.38 0.37 0.38 0.42 0.48 0.47 0.41 0.40 0.25 0.16 0.10 0.14 0.15 0.22 0.21 0.33 0.30 0.34 0.32 0.33 0.32 0.29 0.26 0.26 0.31 0.30 0.38 0.40 0.44 0.44 0.41 0.41 0.45 0.42 0.42 0.37 0.30 0.35 0.34 0.34 0.34 0.39 0.38 0.38 0.39 0.37 0.39 0.33 0.39 0.39 0.47 0.45 0.40 0.38 0.34 0.31 0.31 0.28 0.32 0.37 0.37 0.41 0.49 0.47 0.48 0.34 0.39 0.40 0.45 0.42 0.44 0.49 0.50 0.53 0.53 0.53 0.53 0.57 0.60 0.64 0.67 0.70
0.26 0.25 0.24 0.29 0.39 0.42 0.46 0.51 0.49 0.49 0.49 0.46 0.36 0.30 0.27 0.14 0.11 0.23 0.16 0.23 0.28 0.33 0.31 0.30 0.31 0.30 0.31 0.27 0.28 0.27 0.24 0.28 0.31 0.33 0.38 0.40 0.39 0.37 0.39 0.42 0.42 0.40 0.37 0.38 0.32 0.34 0.29 0.30 0.36 0.36 0.34 0.37 0.35 0.37 0.34 0.39 0.40 0.40 0.44 0.38 0.35 0.34 0.31 0.27 0.29 0.27 0.29 0.33 0.41 0.49 0.40 0.31 0.32 0.32 0.44 0.43 0.43 0.48 0.50 0.52 0.54 0.56 0.57 0.58 0.60 0.62 0.67 0.69
0.23 0.21 0.26 0.37 0.45 0.53 0.57 0.55 0.52 0.53 0.52 0.42 0.33 0.27 0.17 0.14 0.18 0.15 0.16 0.25 0.30 0.30 0.28 0.34 0.29 0.27 0.27 0.29 0.31 0.29 0.26 0.26 0.28 0.32 0.34 0.36 0.36 0.36 0.36 0.39 0.42 0.41 0.41 0.33 0.37 0.35 0.33 0.33 0.38 0.41 0.40 0.39 0.32 0.36 0.43 0.42 0.40 0.44 0.45 0.41 0.37 0.36 0.42 0.32 0.34 0.33 0.33 0.34 0.35 0.38 0.35 0.40 0.39 0.45 0.45 0.45 0.45 0.46 0.49 0.50 0.52 0.53 0.57 0.59 0.58 0.59 0.63 0.67
0.18 0.20 0.38 0.40 0.47 0.59 0.64 0.57 0.52 0.53 0.50 0.35 0.27 0.22 0.18 0.17 0.14 0.19 0.22 0.33 0.32 0.28 0.32 0.32 0.29 0.27 0.28 0.28 0.31 0.29 0.31 0.26 0.29 0.29 0.33 0.34 0.37 0.35 0.39 0.40 0.40 0.42 0.39 0.34 0.38 0.33 0.34 0.32 0.40 0.40 0.42 0.37 0.37 0.37 0.36 0.40 0.30 0.41 0.38 0.33 0.37 0.44 0.43 0.38 0.39 0.42 0.40 0.36 0.33 0.43 0.38 0.41 0.47 0.44 0.42 0.44 0.44 0.45 0.46 0.47 0.49 0.51 0.54 0.57 0.56 0.58 0.62 0.66
0.17 0.35 0.41 0.51 0.55 0.64 0.66 0.63 0.59 0.54 0.50 0.38 0.25 0.19 0.23 0.23 0.25 0.26 0.27 0.29 0.33 0.35 0.33 0.27 0.28 0.28 0.28 0.28 0.29 0.29 0.30 0.27 0.29 0.29 0.28 0.34 0.34 0.36 0.37 0.40 0.43 0.42 0.42 0.39 0.38 0.41 0.32 0.32 0.38 0.38 0.35 0.37 0.41 0.38 0.40 0.39 0.37 0.37 0.32 0.38 0.45 0.49 0.44 0.39 0.31 0.35 0.33 0.28 0.31 0.39 0.34 0.36 0.39 0.30 0.42 0.41 0.41 0.43 0.43 0.44 0.46 0.50 0.54 0.54 0.56 0.58 0.61 0.63
0.24 0.41 0.48 0.53 0.60 0.65 0.66 0.66 0.60 0.53 0.49 0.34 0.24 0.26 0.38 0.25 0.30 0.28 0.32 0.28 0.31 0.34 0.32 0.28 0.30 0.33 0.30 0.30 0.32 0.33 0.30 0.25 0.27 0.27 0.26 0.31 0.30 0.42 0.39 0.38 0.43 0.42 0.42 0.44 0.37 0.40 0.39 0.31 0.34 0.37 0.38 0.39 0.40 0.37 0.36 0.40 0.39 0.31 0.30 0.45 0.32 0.31 0.28 0.39 0.35 0.27 0.26 0.27 0.29 0.35 0.39 0.37 0.39 0.35 0.43 0.39 0.39 0.42 0.46 0.49 0.49 0.46 0.49 0.51 0.54 0.58 0.61 0.64
0.31 0.44 0.38 0.52 0.68 0.72 0.67 0.66 0.57 0.42 0.36 0.26 0.26 0.22 0.28 0.28 0.32 0.30 0.31 0.30 0.31 0.33 0.29 0.30 0.30 0.31 0.31 0.28 0.34 0.37 0.35 0.25 0.31 0.28 0.25 0.34 0.27 0.43 0.38 0.40 0.40 0.44 0.44 0.43 0.38 0.39 0.39 0.29 0.31 0.36 0.37 0.39 0.39 0.34 0.27 0.31 0.37 0.36 0.38 0.36 0.43 0.35 0.32 0.31 0.34 0.32 0.33 0.27 0.29 0.30 0.35 0.33 0.40 0.42 0.45 0.43 0.43 0.43 0.46 0.50 0.50 0.49 0.50 0.52 0.53 0.57 0.58 0.61
0.27 0.37 0.40 0.65 0.76 0.76 0.72 0.63 0.47 0.38 0.28 0.21 0.25 0.24 0.31 0.24 0.25 0.30 0.31 0.31 0.30 0.32 0.31 0.31 0.32 0.29 0.30 0.30 0.36 0.34 0.40 0.39 0.34 0.36 0.30 0.41 0.32 0.47 0.42 0.46 0.43 0.43 0.44 0.42 0.38 0.41 0.36 0.37 0.27 0.33 0.38 0.38 0.34 0.34 0.30 0.30 0.31 0.31 0.32 0.32 0.34 0.35 0.42 0.37 0.39 0.36 0.32 0.29 0.28 0.28 0.29 0.35 0.42 0.51 0.49 0.49 0.51 0.48 0.47 0.48 0.51 0.52 0.54 0.56 0.55 0.52 0.54 0.58
0.32 0.35 0.44 0.70 0.76 0.76 0.70 0.54 0.35 0.23 0.23 0.30 0.31 0.27 0.27 0.22 0.22 0.20 0.24 0.29 0.32 0.37 0.34 0.32 0.31 0.30 0.31 0.30 0.33 0.39 0.38 0.39 0.39 0.38 0.37 0.38 0.36 0.34 0.44 0.46 0.47 0.44 0.43 0.41 0.38 0.39 0.33 0.33 0.27 0.31 0.30 0.31 0.37 0.40 0.39 0.36 0.35 0.33 0.32 0.30 0.33 0.32 0.31 0.29 0.30 0.42 0.38 0.33 0.30 0.28 0.28 0.36 0.45 0.52 0.52 0.52 0.54 0.52 0.50 0.50 0.51 0.53 0.56 0.58 0.59 0.55 0.52 0.54
0.21 0.25 0.37 0.61 0.65 0.66 0.54 0.33 0.34 0.37 0.26 0.20 0.21 0.26 0.23 0.29 0.24 0.23 0.25 0.29 0.31 0.32 0.36 0.34 0.32 0.31 0.31 0.33 0.38 0.37 0.37 0.38 0.40 0.39 0.41 0.36 0.43 0.38 0.48 0.51 0.48 0.47 0.41 0.39 0.40 0.45 0.42 0.36 0.31 0.28 0.29 0.30 0.38 0.44 0.48 0.46 0.42 0.38 0.36 0.35 0.43 0.39 0.35 0.31 0.26 0.33 0.38 0.39 0.40 0.37 0.32 0.36 0.51 0.54 0.57 0.55 0.54 0.53 0.55 0.57 0.57 0.58 0.58 0.59 0.60 0.59 0.58 0.58
0.29 0.28 0.42 0.58 0.61 0.59 0.45 0.31 0.37 0.32 0.29 0.42 0.50 0.50 0.53 0.44 0.34 0.33 0.28 0.32 0.30 0.34 0.33 0.32 0.32 0.30 0.32 0.31 0.34 0.35 0.39 0.36 0.38 0.37 0.40 0.41 0.42 0.44 0.49 0.49 0.50 0.47 0.46 0.46 0.46 0.48 0.52 0.36 0.30 0.31 0.33 0.34 0.41 0.47 0.47 0.48 0.44 0.41 0.40 0.43 0.41 0.36 0.36 0.34 0.34 0.38 0.35 0.36 0.33 0.34 0.31 0.38 0.51 0.59 0.56 0.57 0.57 0.58 0.59 0.60 0.62 0.62 0.62 0.61 0.60 0.61 0.63 0.65
0.36 0.39 0.43 0.55 0.72 0.65 0.46 0.24 0.26 0.32 0.38 0.45 0.48 0.50 0.56 0.49 0.42 0.42 0.41 0.43 0.40 0.34 0.32 0.32 0.33 0.35 0.32 0.35 0.33 0.30 0.37 0.31 0.41 0.38 0.39 0.43 0.41 0.50 0.50 0.50 0.50 0.52 0.49 0.49 0.41 0.45 0.34 0.41 0.33 0.27 0.26 0.26 0.31 0.40 0.41 0.46 0.47 0.44 0.41 0.41 0.44 0.43 0.43 0.43 0.41 0.42 0.34 0.37 0.36 0.31 0.27 0.34 0.48 0.59 0.58 0.57 0.57 0.57 0.59 0.60 0.61 0.61 0.62 0.63 0.63 0.63 0.65 0.68
0.43 0.50 0.52 0.55 0.69 0.71 0.46 0.42 0.41 0.40 0.41 0.40 0.40 0.42 0.48 0.49 0.53 0.49 0.45 0.41 0.43 0.41 0.37 0.34 0.36 0.39 0.39 0.39 0.34 0.32 0.35 0.32 0.34 0.41 0.43 0.46 0.45 0.51 0.52 0.54 0.53 0.53 0.58 0.58 0.51 0.50 0.40 0.40 0.36 0.28 0.24 0.21 0.22 0.25 0.30 0.34 0.38 0.46 0.48 0.44 0.43 0.42 0.41 0.39 0.33 0.36 0.31 0.37 0.37 0.32 0.32 0.41 0.50 0.55 0.55 0.56 0.56 0.56 0.59 0.61 0.61 0.63 0.63 0.62 0.64 0.66 0.69 0.71
0.30 0.21 0.41 0.44 0.58 0.54 0.52 0.51 0.50 0.43 0.40 0.38 0.35 0.41 0.46 0.43 0.49 0.53 0.51 0.49 0.53 0.48 0.42 0.41 0.46 0.42 0.39 0.37 0.32 0.31 0.33 0.39 0.34 0.38 0.37 0.40 0.44 0.49 0.51 0.54 0.54 0.57 0.61 0.59 0.57 0.50 0.43 0.45 0.40 0.37 0.34 0.31 0.33 0.37 0.43 0.44 0.42 0.38 0.43 0.42 0.41 0.44 0.46 0.43 0.41 0.35 0.30 0.37 0.36 0.38 0.39 0.42 0.45 0.48 0.50 0.51 0.56 0.57 0.58 0.60 0.61 0.61 0.60 0.63 0.67 0.70 0.71 0.71
0.38 0.24 0.24 0.19 0.32 0.43 0.43 0.45 0.43 0.45 0.39 0.44 0.35 0.42 0.38 0.43 0.47 0.50 0.58 0.45 0.51 0.49 0.49 0.48 0.45 0.37 0.40 0.38 0.35 0.31 0.35 0.30 0.37 0.40 0.40 0.38 0.44 0.53 0.56 0.56 0.56 0.58 0.60 0.54 0.58 0.50 0.45 0.40 0.42 0.41 0.41 0.42 0.42 0.41 0.44 0.44 0.41 0.42 0.43 0.43 0.46 0.44 0.44 0.43 0.38 0.34 0.41 0.36 0.33 0.42 0.46 0.42 0.45 0.48 0.50 0.52 0.54 0.56 0.58 0.61 0.62 0.62 0.65 0.66 0.70 0.74 0.74 0.74
0.24 0.28 0.31 0.32 0.22 0.22 0.28 0.36 0.45 0.44 0.47 0.45 0.41 0.47 0.43 0.41 0.45 0.45 0.52 0.54 0.55 0.55 0.44 0.48 0.47 0.46 0.45 0.43 0.42 0.35 0.37 0.37 0.37 0.37 0.44 0.44 0.44 0.48 0.50 0.56 0.55 0.61 0.59 0.54 0.57 0.49 0.44 0.39 0.46 0.43 0.42 0.45 0.45 0.44 0.44 0.44 0.43 0.42 0.42 0.43 0.42 0.45 0.45 0.41 0.41 0.45 0.43 0.37 0.35 0.43 0.47 0.44 0.50 0.55 0.57 0.57 0.56 0.57 0.58 0.60 0.65 0.70 0.69 0.71 0.73 0.74 0.75 0.74
0.31 0.29 0.26 0.34 0.18 0.22 0.26 0.34 0.44 0.47 0.46 0.48 0.46 0.44 0.42 0.44 0.43 0.49 0.51 0.49 0.51 0.52 0.51 0.41 0.44 0.47 0.47 0.49 0.45 0.39 0.39 0.31 0.33 0.42 0.42 0.43 0.42 0.46 0.43 0.51 0.54 0.57 0.56 0.53 0.53 0.58 0.48 0.44 0.47 0.46 0.44 0.46 0.47 0.46 0.47 0.43 0.42 0.42 0.44 0.44 0.44 0.43 0.44 0.43 0.43 0.46 0.45 0.42 0.43 0.44 0.47 0.48 0.56 0.61 0.65 0.65 0.61 0.59 0.62 0.65 0.67 0.67 0.68 0.69 0.71 0.73 0.74 0.76
0.20 0.18 0.19 0.25 0.23 0.19 0.25 0.34 0.39 0.39 0.39 0.48 0.43 0.46 0.43 0.45 0.45 0.48 0.53 0.51 0.46 0.50 0.58 0.49 0.50 0.50 0.49 0.49 0.48 0.41 0.45 0.47 0.46 0.40 0.45 0.45 0.42 0.45 0.45 0.51 0.50 0.54 0.56 0.53 0.54 0.59 0.46 0.46 0.50 0.47 0.42 0.41 0.45 0.47 0.48 0.45 0.44 0.41 0.46 0.47 0.46 0.46 0.45 0.47 0.47 0.50 0.50 0.46 0.48 0.47 0.47 0.49 0.64 0.73 0.76 0.81 0.81 0.75 0.70 0.66 0.67 0.71 0.73 0.71 0.69 0.70 0.73 0.75
0.32 0.29 0.27 0.18 0.15 0.22 0.32 0.37 0.34 0.32 0.33 0.41 0.39 0.46 0.46 0.46 0.47 0.51 0.50 0.57 0.55 0.51 0.53 0.50 0.54 0.52 0.52 0.50 0.49 0.47 0.53 0.53 0.52 0.51 0.52 0.47 0.39 0.49 0.43 0.48 0.55 0.51 0.54 0.52 0.53 0.54 0.51 0.49 0.53 0.48 0.40 0.40 0.45 0.43 0.45 0.45 0.45 0.43 0.43 0.44 0.46 0.45 0.41 0.48 0.48 0.59 0.50 0.45 0.48 0.48 0.44 0.49 0.66 0.78 0.81 0.78 0.74 0.73 0.71 0.70 0.70 0.74 0.77 0.76 0.75 0.78 0.81 0.82
0.34 0.31 0.35 0.25 0.18 0.32 0.33 0.35 0.33 0.30 0.28 0.36 0.38 0.42 0.44 0.48 0.50 0.50 0.45 0.55 0.59 0.62 0.61 0.58 0.57 0.51 0.49 0.48 0.47 0.50 0.55 0.57 0.57 0.57 0.57 0.55 0.54 0.54 0.51 0.53 0.53 0.52 0.51 0.49 0.56 0.51 0.52 0.49 0.46 0.44 0.38 0.39 0.45 0.47 0.43 0.42 0.38 0.36 0.40 0.47 0.53 0.52 0.54 0.58 0.60 0.63 0.61 0.60 0.47 0.43 0.49 0.65 0.73 0.80 0.73 0.73 0.74 0.74 0.76 0.79 0.77 0.78 0.83 0.85 0.83 0.82 0.86 0.90
Wind_Speed
14 14 14 14 14 14 14 14 14 14 14 14 14 14 14 14 14 14 14 14 14 14 14 13 12 11 9 9 8 7 7 6 6 5 4 4 3 3 3 2 1 2 4 4 3 3 2 1 2 3 3 3 4 4 4 5 5 5 5 5 7 7 7 6 5 5 4 5 6 6 6 4 4 4 3 1 0 2 2 2 4 4 5 8 10 12 12 11
14 14 14 14 14 14 14 14 14 14 14 14 13 13 14 14 14 13 13 13 14 14 14 13 12 10 9 8 8 7 6 5 5 4 4 3 1 2 3 2 2 4 5 4 3 2 1 2 2 3 3 3 4 4 5 5 4 4 4 5 6 6 6 5 4 4 3 4 5 4 5 3 1 1 3 2 1 2 3 3 4 6 6 8 11 12 11 11
14 14 15 14 14 14 14 14 14 14 14 14 13 13 14 13 13 13 13 13 13 13 13 13 11 10 8 7 7 6 5 5 4 4 4 3 1 3 3 3 3 5 5 3 2 2 2 2 2 2 2 2 3 3 3 3 3 3 3 3 5 4 4 3 4 4 3 3 3 3 3 2 1 2 2 3 2 3 4 4 5 7 8 10 11 11 11 11
14 14 15 15 14 14 14 14 14 14 14 14 13 13 13 13 13 13 12 12 12 12 12 12 11 9 8 6 5 5 5 6 4 4 5 5 4 4 4 4 4 6 4 3 3 3 1 0 2 2 2 1 1 1 1 1 0 1 1 1 3 1 1 2 4 3 2 1 1 1 1 0 1 1 2 5 4 3 4 5 7 9 11 12 12 11 11 10
14 14 14 14 15 14 14 14 15 15 14 14 14 13 13 13 13 12 12 11 12 12 12 11 10 8 7 5 4 4 5 5 4 4 6 5 5 6 5 6 6 6 5 5 4 3 2 2 3 3 4 4 4 4 3 2 3 2 1 1 2 2 1 0 4 3 2 1 0 1 1 2 2 2 5 6 5 5 6 7 8 11 12 12 11 11 10 10
14 14 14 14 15 15 15 15 15 15 14 14 14 13 13 13 12 12 12 11 11 11 11 10 9 8 6 5 4 4 4 4 3 4 6 5 6 6 7 7 7 7 7 6 5 5 4 4 5 5 6 6 5 5 4 4 6 5 3 3 3 4 4 4 5 4 3 2 2 2 2 3 4 4 6 6 5 7 8 9 10 11 12 12 11 10 10 10
14 14 14 15 15 15 15 15 15 15 15 14 14 13 13 13 12 12 11 11 10 10 10 9 8 7 5 4 3 3 3 2 2 3 5 6 6 7 8 8 9 8 7 6 5 6 5 5 5 7 8 8 7 7 6 7 9 9 7 6 6 7 8 8 7 6 5 5 4 4 4 5 5 5 6 6 7 8 10 11 12 12 12 12 11 11 11 11
15 15 15 15 15 15 15 15 15 15 15 15 14 14 13 13 12 12 11 11 10 9 9 8 7 6 5 3 3 3 2 2 2 3 4 5 6 8 9 9 9 8 7 6 6 7 7 6 6 9 10 9 9 9 10 10 11 10 9 8 9 10 11 10 10 9 8 8 8 8 8 7 8 8 8 9 10 11 12 13 13 13 12 12 11 11 11 10
15 15 15 15 15 15 15 15 15 15 15 15 15 14 13 13 13 12 11 10 10 8 8 7 6 5 4 3 3 3 2 1 3 4 5 5 5 7 8 8 8 7 7 6 6 7 8 8 8 10 10 9 10 10 11 12 10 10 10 9 10 11 12 11 10 10 11 11 11 12 11 10 11 10 10 11 13 13 14 14 13 13 12 11 11 10 9 9
16 16 16 16 16 16 16 16 16 15 15 15 15 14 14 13 13 12 11 10 9 8 7 6 5 4 3 2 2 2 1 2 4 4 5 5 5 6 6 7 7 7 7 6 6 7 8 9 9 10 10 10 10 10 11 12 10 10 10 9 9 9 10 11 10 11 12 12 12 12 11 11 11 10 10 11 13 13 14 13 12 12 11 10 10 9 8 8
16 16 16 16 16 16 16 16 16 16 16 15 15 15 14 14 13 13 11 10 9 8 6 5 4 3 3 2 1 0 1 2 3 4 5 6 7 7 6 7 7 7 6 6 6 7 7 8 10 10 9 10 10 9 10 10 10 10 10 9 8 8 9 10 10 11 11 10 11 12 11 11 10 9 10 11 12 13 13 12 11 11 10 10 9 8 8 7
17 17 17 17 17 16 16 16 16 16 16 16 15 15 14 14 13 13 11 9 8 7 6 4 3 3 3 2 2 2 1 2 3 4 5 6 7 7 6 6 6 6 6 6 5 5 6 7 9 9 7 9 9 8 8 8 9 9 9 9 8 9 9 9 9 10 10 9 10 11 11 9 8 8 10 11 11 11 11 10 10 10 9 9 8 8 8 8
17 17 17 17 17 17 17 17 17 16 16 16 16 15 14 14 13 12 11 9 8 7 6 4 4 3 2 2 4 3 2 1 2 3 6 6 7 6 6 6 6 7 6 5 4 4 5 6 7 6 6 7 7 7 7 8 8 8 8 8 7 8 8 7 8 8 8 8 9 9 8 6 7 8 10 10 10 10 10 9 9 9 9 8 8 8 8 8
17 17 17 17 17 17 17 17 17 16 16 16 16 15 15 14 13 12 11 9 8 7 6 4 4 3 2 3 4 3 4 3 3 5 7 7 7 5 5 5 5 6 5 4 3 3 4 5 5 5 5 6 6 7 7 7 8 7 7 7 7 7 5 4 6 7 7 7 8 8 7 5 5 7 8 9 10 10 9 9 9 9 8 8 8 8 8 8
16 16 16 17 17 17 17 17 17 17 16 16 16 15 15 14 13 11 10 9 8 7 6 5 4 3 2 4 4 3 4 4 5 6 7 9 8 5 5 5 4 5 5 4 3 2 4 5 5 4 4 5 6 7 6 6 6 6 5 5 5 5 3 4 5 7 7 6 7 8 7 5 4 6 8 9 9 9 9 8 8 8 8 8 8 8 8 8
16 16 16 16 17 17 17 17 17 17 16 16 16 15 14 13 12 10 9 8 8 7 6 5 4 3 2 3 3 2 3 4 5 6 8 10 9 6 6 7 4 3 4 4 3 3 4 4 3 3 3 5 6 6 6 5 4 4 4 3 2 3 3 3 4 6 7 6 6 6 6 5 4 6 8 8 9 8 8 7 8 8 8 8 8 8 9 9
16 16 16 16 17 17 17 17 17 17 16 16 15 14 13 12 9 8 8 8 7 7 7 6 4 4 4 3 2 2 4 5 5 6 8 9 9 7 6 6 4 3 3 4 4 4 4 3 2 2 3 4 4 5 5 4 3 3 2 1 1 2 3 3 3 5 7 6 4 4 5 4 4 6 8 8 8 8 7 6 7 7 8 8 8 9 9 10
16 17 16 16 17 17 17 17 17 16 16 15 14 13 11 8 6 5 6 7 7 7 7 6 5 4 5 5 4 3 4 5 6 6 7 8 8 7 7 6 5 4 4 5 4 5 4 2 2 2 2 3 3 4 3 2 2 3 2 2 1 1 2 3 3 5 7 6 4 3 3 3 4 5 7 8 8 7 6 6 7 7 8 9 8 9 10 11
17 17 16 16 17 17 17 17 16 16 15 14 12 10 8 6 5 5 6 7 7 7 7 7 7 6 6 6 6 4 3 5 6 6 7 8 8 8 7 6 5 5 4 3 2 3 4 2 2 1 1 2 2 3 3 1 2 2 1 1 1 1 1 3 4 6 8 6 4 3 3 3 4 4 5 7 7 7 6 6 6 7 8 9 9 10 11 11
17 17 17 17 17 17 17 16 16 15 14 12 9 7 6 6 6 7 7 8 9 10 10 10 10 9 9 8 6 5 3 4 6 6 8 9 8 8 8 7 6 5 4 2 0 1 3 1 1 1 2 2 2 3 3 1 1 0 1 1 0 1 2 3 5 6 7 5 4 4 3 3 3 3 4 6 7 7 6 6 6 7 9 10 10 11 12 11
18 17 17 17 18 18 17 16 15 14 12 10 8 7 7 7 7 9 10 10 11 11 12 12 11 12 12 10 9 7 5 5 6 7 9 9 9 8 8 8 6 5 3 2 1 1 3 2 2 3 3 3 2 3 3 0 2 2 1 1 2 2 2 2 4 6 7 3 3 5 4 3 3 2 3 5 7 7 7 7 7 8 9 10 11 12 11 11
18 18 18 18 18 18 17 16 15 13 11 10 8 7 8 8 8 10 10 10 11 12 12 13 13 13 13 13 12 10 7 8 8 8 10 10 10 9 7 7 6 4 3 2 1 1 2 2 4 4 4 3 1 2 3 2 2 3 1 2 4 2 1 3 4 5 7 3 2 5 5 4 3 2 3 5 6 6 8 9 8 8 9 10 11 11 11 11
18 18 18 18 18 18 17 17 15 12 10 10 10 9 9 9 8 9 9 9 11 12 12 13 14 13 13 13 13 11 10 10 9 9 11 11 10 10 8 7 5 4 4 2 2 3 2 3 4 4 3 3 2 1 2 2 2 3 2 3 3 2 4 5 4 3 4 3 3 5 5 3 2 2 2 4 6 6 8 9 9 9 10 11 12 12 12 12
19 19 19 18 18 18 17 17 13 11 11 11 11 11 10 9 9 9 8 8 9 10 11 12 13 13 14 13 12 11 10 11 10 10 11 12 11 9 8 7 5 4 5 4 4 4 3 3 2 2 2 3 3 2 1 1 2 3 2 1 1 3 4 4 3 2 1 1 3 5 4 3 3 2 2 4 5 6 7 8 9 10 10 11 12 12 12 12
20 20 19 19 18 18 18 15 11 10 12 11 11 11 11 10 9 8 7 7 8 9 9 10 11 13 15 14 12 12 11 11 12 11 12 13 12 9 7 7 6 5 5 5 4 3 4 3 2 1 2 2 3 3 2 2 2 3 1 1 2 3 4 4 3 2 2 2 3 5 3 2 4 4 3 3 5 6 6 7 9 10 10 10 12 12 12 12
21 20 19 19 18 18 17 13 11 11 12 11 11 12 11 10 9 7 6 5 7 8 8 8 9 10 13 13 13 12 10 11 13 13 13 13 13 10 8 7 5 5 6 4 4 3 3 2 1 2 3 2 3 3 4 3 1 2 1 2 3 4 3 2 2 2 2 1 2 3 2 1 4 5 4 3 5 6 6 7 9 10 10 10 12 12 12 12
21 20 20 19 17 16 14 13 12 12 11 11 12 11 11 10 8 7 5 4 5 6 7 8 8 8 10 13 13 11 9 11 12 14 14 14 13 11 10 8 6 5 5 3 4 4 4 2 1 2 2 3 3 3 5 3 1 1 2 5 4 5 3 1 1 2 3 1 1 2 1 0 3 6 5 4 6 7 7 7 8 10 10 11 13 13 13 13
21 20 19 18 17 16 14 14 14 12 12 12 12 11 11 10 8 6 4 3 5 6 6 7 8 8 8 10 14 13 10 10 10 11 13 14 13 11 10 10 8 7 5 4 6 6 4 3 3 4 3 4 4 3 5 3 1 1 4 5 3 4 3 1 2 2 2 1 2 2 1 0 2 4 4 5 7 8 8 8 8 9 11 12 13 14 13 13
20 20 19 18 17 16 14 15 15 13 13 12 11 11 10 9 8 6 5 5 5 5 5 7 8 8 8 9 13 13 11 11 10 9 12 13 13 11 10 9 8 7 6 6 7 6 5 4 5 4 4 5 3 3 6 5 1 1 4 2 1 3 4 4 3 2 1 1 2 3 2 1 2 3 4 5 7 8 9 8 8 9 11 12 14 13 13 13
21 20 19 18 16 15 14 15 15 14 14 13 12 11 10 9 8 7 6 7 6 5 5 6 7 8 8 8 11 12 12 12 11 9 10 12 12 11 9 8 7 6 6 6 7 6 6 5 5 4 4 4 3 4 5 5 3 3 3 2 3 4 4 4 2 2 2 1 2 3 3 3 1 2 4 6 5 6 8 8 7 9 11 12 13 13 13 13
21 20 19 17 15 14 14 14 13 13 13 13 12 11 9 9 9 8 8 8 6 5 5 6 6 7 8 9 10 11 12 12 11 9 10 10 11 11 9 7 6 5 4 5 6 5 5 5 4 5 4 2 5 4 3 4 3 3 2 2 2 3 4 4 3 2 2 1 2 2 3 3 1 1 3 5 5 5 8 8 8 9 10 12 13 13 14 14
21 20 19 17 15 14 14 14 13 13 13 13 12 11 10 10 10 10 9 7 6 6 5 4 5 7 9 9 9 12 12 11 11 10 10 10 10 11 11 10 9 6 5 6 5 4 4 4 4 5 4 4 7 6 3 2 1 3 3 2 2 3 4 3 3 2 1 1 1 2 2 2 2 2 2 4 5 6 7 9 9 10 11 13 13 13 14 13
20 20 18 17 16 15 14 14 14 13 13 13 12 12 11 10 11 12 11 8 8 8 6 4 5 7 10 10 9 12 13 11 11 11 11 11 10 11 11 11 10 8 6 6 4 3 3 3 3 3 3 5 8 7 5 5 4 4 2 0 1 1 2 2 2 1 1 1 1 2 2 1 1 1 2 4 5 6 8 9 10 11 12 12 13 13 14 13
19 18 16 15 14 13 12 12 13 14 14 14 13 12 12 11 11 13 12 10 9 9 7 6 6 8 11 12 10 11 13 12 11 11 11 11 10 11 11 10 11 9 7 6 5 4 4 4 3 4 3 4 6 6 7 7 5 4 2 0 1 0 0 0 1 1 1 0 1 1 1 2 1 1 2 3 5 7 8 8 10 11 12 12 12 12 13 13
17 15 13 11 10 11 12 12 13 14 14 14 13 13 14 13 12 13 13 11 10 9 8 7 7 7 11 13 10 10 12 12 12 12 11 11 11 12 11 10 11 10 8 7 6 4 4 5 5 5 4 4 5 5 6 6 4 4 2 0 1 1 2 1 1 3 2 1 1 1 2 2 2 1 1 3 5 7 7 7 8 9 10 11 11 12 13 13
14 11 9 8 8 9 10 10 12 13 14 13 13 14 15 14 13 14 13 11 10 8 7 6 5 4 7 11 11 11 11 11 12 12 12 12 12 12 11 10 11 12 10 8 7 5 4 5 5 4 4 6 6 5 7 7 5 4 3 3 2 0 2 2 0 1 2 2 0 0 1 1 1 1 1 4 7 6 6 7 8 8 10 11 11 12 13 13
11 9 7 7 7 7 9 10 11 13 13 12 14 15 14 14 14 14 14 12 10 8 6 5 5 4 3 6 10 11 12 11 11 12 12 13 13 12 12 10 10 12 12 10 9 8 6 6 6 5 6 7 5 4 5 6 5 3 4 5 3 0 1 1 1 2 3 1 1 1 1 2 1 0 2 5 6 6 7 7 8 8 10 11 11 12 13 13
10 7 6 7 6 7 8 9 11 12 11 12 14 14 14 14 14 14 14 13 12 10 9 8 8 6 3 4 6 9 11 12 13 12 12 12 12 12 11 11 10 10 11 11 10 9 7 7 6 5 7 7 4 3 3 6 5 4 5 5 3 1 2 1 1 0 1 1 2 2 1 2 0 1 3 5 6 6 7 7 7 8 8 9 10 12 12 12
8 6 5 6 6 6 8 9 10 11 10 12 13 14 13 14 14 15 16 15 14 13 11 10 9 8 6 5 7 8 9 12 12 12 11 11 11 11 10 11 10 9 9 11 12 11 8 7 6 5 6 6 4 3 3 6 6 4 4 5 3 2 3 3 1 1 1 1 1 1 1 1 1 2 3 5 6 7 7 7 7 7 8 9 10 11 11 12
6 5 5 5 5 5 7 8 8 9 10 12 13 13 13 13 14 15 16 16 15 15 14 12 10 10 8 7 8 9 9 11 11 11 11 11 11 11 10 11 10 9 8 8 10 10 9 9 8 6 5 5 5 5 4 6 6 5 6 7 4 2 2 2 2 1 1 1 1 0 1 2 2 2 3 4 6 7 8 8 7 8 9 9 10 10 11 12
5 5 5 5 4 5 6 7 7 9 10 12 13 13 13 13 14 15 17 17 16 16 16 14 12 12 10 8 8 10 10 11 11 11 11 11 11 11 11 12 10 9 8 7 6 8 9 10 10 8 6 5 7 6 4 4 5 6 7 7 6 5 3 2 3 3 1 1 2 1 1 3 3 2 3 4 5 6 7 8 8 8 10 10 10 11 10 11
4 4 6 5 5 5 5 6 7 8 10 11 12 13 13 14 14 14 16 17 17 17 16 15 13 12 12 11 10 10 10 11 12 11 11 12 12 12 12 12 9 8 9 9 7 7 9 9 9 10 8 7 7 6 4 3 3 4 5 6 6 5 4 3 4 4 2 1 2 1 1 3 3 3 3 4 5 4 5 8 8 8 9 11 11 11 10 10
5 5 6 5 5 5 5 5 7 7 9 11 12 13 14 14 14 14 14 15 16 16 16 15 14 12 12 12 12 11 11 12 12 12 12 12 13 13 13 11 10 9 8 9 9 8 7 7 8 9 8 7 6 6 5 3 2 2 4 5 5 4 4 4 4 4 3 2 2 1 2 4 4 4 3 3 3 3 4 7 9 8 9 11 12 11 10 10
6 6 5 5 5 5 5 6 7 8 9 10 11 12 13 14 14 14 14 15 16 17 17 15 14 14 13 13 13 14 13 12 12 12 12 13 13 13 12 10 11 11 10 10 10 9 8 8 7 7 7 6 6 5 5 4 3 3 3 4 5 4 2 3 3 3 2 3 3 2 3 5 4 4 3 3 2 3 4 7 10 10 10 12 12 11 11 10
6 6 6 6 5 5 6 7 7 8 9 9 10 11 12 13 13 13 14 14 14 16 17 16 15 14 13 12 13 14 13 13 12 11 11 13 13 12 11 11 12 12 11 11 10 9 9 9 8 7 8 8 8 8 7 6 6 5 5 5 5 4 3 3 3 2 3 4 3 3 4 5 4 4 4 3 2 2 3 5 7 9 10 13 13 12 12 11
6 6 7 7 6 5 6 7 7 8 9 8 9 11 11 12 13 13 13 13 12 13 15 16 14 14 13 12 13 13 12 13 13 11 10 11 13 12 11 12 13 12 11 10 9 9 9 8 8 9 9 9 10 9 9 7 6 7 8 7 6 5 5 4 4 4 5 4 4 5 5 3 4 5 5 3 3 2 3 4 6 7 10 13 13 13 14 13
6 6 6 7 7 7 7 7 7 8 9 9 9 10 11 11 12 13 13 13 12 12 14 14 13 13 13 13 13 13 13 12 12 12 11 11 13 13 11 11 12 12 12 11 11 11 10 9 9 9 9 10 10 9 8 7 6 7 8 7 6 6 5 4 6 7 6 4 5 7 5 3 5 7 5 5 5 5 5 5 6 7 9 11 12 12 14 14
6 6 6 6 7 7 8 9 9 9 10 10 10 10 10 10 11 12 13 13 11 12 13 13 12 12 13 13 14 13 13 13 12 13 13 11 12 12 11 12 12 12 13 13 13 12 12 11 11 10 10 10 9 8 7 7 7 7 7 7 7 7 7 7 8 8 6 5 7 8 5 3 6 7 7 7 8 8 8 8 7 7 9 10 11 12 14 15
6 6 7 6 7 8 9 10 10 10 10 10 9 9 10 10 11 12 13 14 12 12 12 13 12 12 12 13 14 14 14 14 14 14 14 12 11 12 12 13 13 12 12 13 13 13 13 13 13 12 11 11 10 8 8 8 8 7 7 7 8 9 9 9 8 8 7 7 8 7 4 3 6 7 8 9 9 9 8 8 8 8 9 11 12 13 15 16
6 6 7 7 7 8 9 9 9 9 10 9 9 10 10 11 12 13 14 14 13 13 12 13 13 13 13 12 12 14 15 15 16 16 15 14 13 12 12 13 13 11 11 11 12 12 13 14 15 13 11 12 12 10 9 9 8 8 8 8 9 8 8 8 8 7 7 7 7 5 4 5 7 8 8 8 6 6 6 7 7 7 8 9 10 12 15 16
6 7 7 7 7 7 7 8 8 8 9 9 9 10 11 11 12 13 14 14 13 13 13 14 15 16 15 14 12 13 15 16 17 18 18 16 16 15 14 14 13 11 11 11 11 11 11 13 14 12 12 14 13 11 11 11 9 9 10 10 10 9 8 8 7 7 7 8 7 6 6 8 9 9 8 7 6 5 6 7 6 5 5 6 7 9 11 14
7 7 6 6 7 7 7 8 9 8 8 9 10 11 11 12 11 12 14 15 14 13 14 15 16 17 16 15 15 16 17 17 18 19 19 19 19 18 17 17 16 14 13 12 11 11 10 11 12 12 12 14 14 12 12 11 10 11 12 12 12 11 9 9 8 7 8 9 8 8 9 10 10 10 9 7 6 6 7 7 7 6 4 4 5 7 8 10
Wind_Direction
316 318 319 320 319 318 317 317 319 322 325 327 328 329 331 334 335 337 340 341 343 344 345 345 343 341 340 341 340 338 338 334 330 326 309 298 282 244 224 228 224 169 172 171 167 183 204 235 247 277 286 266 257 254 262 257 255 271 274 273 274 269 267 271 268 261 268 278 280 279 275 279 292 280 237 216 124 153 169 176 173 168 161 163 165 162 163 164
314 315 317 318 319 318 317 316 317 319 322 324 325 325 328 331 332 334 337 339 342 343 344 345 344 342 342 345 347 349 352 349 344 334 317 312 289 199 196 199 171 155 161 165 166 171 195 243 263 289 292 274 263 264 277 271 263 269 270 272 268 263 263 261 243 228 246 274 284 291 282 284 277 193 173 165 142 138 136 140 150 146 146 151 156 159 161 162
312 314 315 316 317 318 317 316 315 316 319 321 322 322 325 329 329 331 334 336 340 342 344 345 344 343 343 345 350 360 7 7 4 2 9 30 115 156 165 166 151 150 155 155 151 154 179 238 283 305 298 277 267 279 292 277 265 266 264 269 264 258 265 250 200 206 242 259 273 290 289 305 188 176 174 168 150 143 149 150 148 149 152 151 154 159 161 161
311 312 313 314 316 316 316 316 315 314 316 318 319 320 322 325 326 328 331 333 338 341 344 346 345 345 348 348 353 4 15 20 23 31 41 61 93 117 134 133 131 140 144 121 108 126 151 294 343 2 38 50 12 22 19 317 252 229 196 243 253 232 271 231 175 185 228 221 231 258 279 73 182 170 158 155 142 155 164 159 155 155 155 153 155 157 157 158
309 310 312 313 314 315 315 315 314 314 314 315 316 316 318 321 323 324 327 330 334 339 343 345 345 348 354 356 359 8 26 34 40 49 51 68 89 99 110 113 116 120 119 110 103 94 65 45 43 54 69 66 60 66 67 73 92 100 107 157 169 104 58 130 134 138 166 174 37 162 159 155 161 136 147 146 142 165 165 156 154 152 151 149 151 150 151 152
307 308 310 312 313 314 314 314 314 313 312 312 313 313 314 317 319 321 322 325 330 335 340 344 346 349 357 2 9 20 41 45 44 54 57 76 93 100 107 110 111 109 110 109 96 76 60 57 62 74 78 71 76 78 67 75 91 91 82 96 105 91 85 94 112 122 130 108 83 137 142 131 124 123 145 142 139 158 155 147 146 145 144 142 142 142 144 147
305 306 307 309 312 313 313 313 313 312 311 311 311 310 309 312 315 317 318 320 324 330 337 342 345 349 357 5 21 31 38 24 21 59 71 86 98 106 111 110 108 105 107 105 90 76 66 64 71 87 87 78 81 78 75 82 89 93 88 87 85 85 96 101 108 113 106 95 95 109 113 123 122 121 132 130 131 141 141 138 139 139 138 137 138 140 142 144
303 304 305 307 309 310 312 312 312 311 310 309 309 307 305 307 311 312 313 315 317 324 331 337 342 346 357 10 25 23 16 3 31 87 98 101 106 112 113 109 105 104 104 103 94 85 76 74 85 92 88 85 83 76 81 83 83 92 93 91 86 86 99 103 102 101 90 88 91 94 101 116 121 118 120 126 128 129 131 133 134 136 135 137 140 141 142 143
302 302 303 304 306 308 309 310 310 309 308 308 307 305 302 303 306 308 308 309 310 315 323 329 336 343 351 5 30 22 9 55 76 101 113 116 119 122 122 114 108 105 101 99 94 90 84 85 97 98 90 89 88 79 83 85 84 93 94 91 88 89 100 102 95 92 88 90 91 90 94 105 112 109 111 123 126 127 130 132 134 136 137 141 143 143 144 145
302 301 301 302 304 305 306 307 308 307 307 306 305 304 302 301 302 303 302 303 303 306 315 320 323 335 336 338 52 40 15 84 95 107 117 122 124 128 136 132 122 114 103 96 95 96 92 89 94 97 90 87 87 82 83 87 89 91 87 85 87 89 96 98 92 88 89 91 94 94 96 106 110 106 110 122 126 129 132 134 137 140 142 145 145 147 148 148
302 301 300 301 302 303 304 305 306 306 305 304 303 303 302 299 298 298 296 296 295 296 303 305 307 322 321 312 136 96 24 106 118 123 126 124 124 128 138 143 134 124 113 102 98 100 100 94 91 90 88 87 84 80 82 88 89 85 81 80 82 85 93 99 94 91 90 87 98 101 97 105 106 103 115 126 128 132 136 138 142 144 147 149 149 151 152 152
300 299 299 300 301 301 303 303 303 303 302 302 302 302 301 297 295 293 289 288 286 286 290 289 287 299 310 294 237 222 139 113 123 137 142 131 127 127 128 143 146 136 126 114 104 101 104 99 92 89 91 91 83 77 81 83 83 81 83 83 76 82 97 101 94 97 92 87 107 102 88 96 101 105 121 128 131 136 139 142 146 148 150 152 152 153 154 155
298 298 297 299 300 300 301 302 302 301 300 299 300 301 300 296 292 287 282 278 276 277 278 273 269 280 289 269 248 227 201 171 152 160 163 150 139 133 124 134 149 145 134 131 129 104 104 104 97 96 95 91 82 81 82 75 80 82 84 87 78 80 98 104 95 100 92 95 118 100 79 92 102 113 126 131 135 140 144 149 149 148 149 150 152 154 157 158
298 297 296 297 299 299 300 301 301 299 298 297 298 298 298 296 289 281 275 267 264 267 267 262 257 261 251 256 259 239 234 229 201 188 182 172 157 145 136 134 146 152 146 150 150 105 103 106 96 89 87 91 90 87 76 68 79 84 77 81 87 88 100 107 101 104 94 103 119 91 77 100 105 120 133 136 140 144 151 157 154 150 148 149 152 155 160 161
301 299 297 297 298 299 299 299 299 299 297 295 295 295 295 294 287 276 267 259 255 255 254 253 247 246 256 262 262 247 240 217 197 198 190 182 171 158 163 162 155 158 165 171 162 126 118 106 92 84 81 94 94 83 69 60 68 77 75 72 84 94 96 107 117 120 105 103 108 84 79 100 105 128 140 143 148 149 154 158 157 156 153 154 156 156 159 162
303 302 299 299 299 299 300 299 298 298 297 294 293 293 292 291 284 269 257 250 247 243 242 245 235 224 239 251 252 243 226 198 190 190 180 180 178 170 172 174 167 163 183 188 167 143 134 110 90 90 88 94 93 81 63 50 44 57 87 86 83 94 88 103 131 137 118 105 107 89 82 89 102 136 147 149 155 156 156 156 158 162 160 160 161 157 157 157
304 303 301 301 301 301 300 300 298 298 296 293 292 291 289 288 278 257 245 241 240 236 235 238 229 224 230 227 232 225 202 191 187 179 175 181 186 183 170 171 181 182 158 143 135 134 136 122 95 82 81 88 92 81 55 37 37 42 79 99 64 96 98 112 139 143 131 119 117 101 87 81 95 135 151 155 159 158 158 160 161 164 164 164 162 158 157 155
304 303 301 302 303 302 302 301 298 296 295 292 290 287 284 280 264 242 234 234 234 230 232 234 223 223 223 212 208 192 174 182 184 179 183 185 186 188 177 170 177 167 125 115 125 134 137 116 95 81 66 83 83 82 68 47 75 68 81 81 25 108 124 141 150 141 141 139 135 118 98 84 94 128 153 162 162 159 162 168 166 164 165 166 162 156 157 157
304 302 301 301 303 304 304 302 299 296 294 289 286 279 270 267 254 239 235 235 234 227 230 228 214 213 215 207 199 185 173 184 185 186 193 186 180 187 187 179 173 157 131 112 127 143 137 88 84 106 89 117 104 107 115 72 92 112 113 75 50 216 191 176 165 150 147 149 159 150 114 102 110 127 156 171 173 170 169 172 170 162 161 163 160 156 157 158
304 302 301 301 302 303 304 303 300 296 290 282 280 269 259 267 255 245 249 247 241 236 236 229 220 224 225 218 212 213 221 203 195 198 200 195 187 188 191 188 177 159 142 129 138 152 147 146 180 182 181 175 164 153 158 37 38 86 297 328 312 254 257 203 175 164 156 157 179 175 143 129 133 128 155 174 180 181 175 173 169 159 156 158 158 159 160 158
304 302 300 301 301 302 303 303 301 294 282 271 271 260 254 264 256 258 265 256 246 240 238 233 228 231 229 225 226 232 240 230 221 211 203 200 190 184 185 181 175 176 184 171 134 108 142 183 226 214 212 212 193 178 179 127 3 339 331 341 334 299 262 193 165 169 172 177 189 177 166 160 157 141 155 167 175 183 178 171 167 160 157 157 157 160 161 158
304 301 300 300 300 301 300 301 299 288 270 261 262 253 253 267 268 270 266 256 253 243 238 236 233 233 229 227 228 229 233 232 229 217 203 195 186 182 180 176 177 190 198 166 133 162 175 225 245 229 224 227 186 157 171 173 350 340 357 8 348 328 116 101 116 154 174 187 203 184 176 172 174 171 160 164 173 181 179 174 169 163 159 159 159 157 156 154
302 300 299 299 299 300 297 298 294 276 261 259 255 249 258 273 281 281 266 254 257 246 237 234 230 229 225 221 221 217 218 220 222 218 202 190 185 184 180 181 188 195 198 187 178 188 209 248 239 218 205 210 233 151 153 176 355 0 19 13 359 56 99 95 94 130 177 198 202 179 173 182 187 187 187 182 179 176 176 179 176 169 165 164 163 158 155 153
301 300 298 297 298 297 295 295 285 263 261 260 248 246 262 272 281 291 275 255 253 244 237 231 225 225 219 216 216 211 212 216 218 214 197 188 186 184 183 186 188 196 208 214 202 193 222 240 208 209 198 200 252 299 158 181 327 344 24 25 0 80 91 107 122 126 120 151 167 152 157 202 201 186 206 198 187 178 171 174 176 174 171 168 166 163 161 160
300 298 296 296 296 296 294 288 269 260 266 256 242 249 267 271 276 289 276 258 255 243 233 226 222 222 217 216 217 215 216 220 216 206 194 191 189 186 194 195 191 199 206 214 216 211 230 226 173 248 272 227 260 278 208 195 285 314 5 132 175 116 95 100 135 152 75 69 167 152 142 227 223 207 209 195 191 189 173 170 175 175 171 166 166 167 166 166
299 297 295 294 294 296 291 274 261 268 263 246 244 257 268 269 274 278 261 257 259 239 221 213 213 215 212 210 209 210 221 225 215 205 200 200 198 196 205 206 198 201 201 211 227 223 228 218 144 243 266 264 269 248 206 189 222 298 267 171 143 96 83 92 113 158 144 133 201 180 159 255 234 224 221 196 194 198 184 173 177 178 175 168 168 169 168 167
299 295 294 292 292 294 282 265 267 268 252 244 251 259 264 264 268 262 242 257 259 229 208 207 206 201 202 203 197 193 207 213 206 206 206 203 202 201 206 209 208 209 202 202 223 226 230 249 279 267 267 277 274 236 202 177 148 271 194 171 131 69 44 225 167 187 204 223 261 222 198 196 220 223 219 194 191 201 195 183 180 182 181 173 170 170 169 169
299 295 292 290 290 286 271 261 266 258 244 249 254 254 256 256 253 237 211 226 236 213 202 207 202 195 196 195 190 190 198 194 189 202 202 196 198 197 200 205 208 218 218 210 228 233 222 228 263 272 269 274 275 232 191 162 113 222 171 177 157 72 65 126 150 172 192 224 273 261 223 89 244 233 213 194 196 203 200 190 185 184 182 176 172 172 173 173
299 295 291 290 288 280 265 257 258 252 246 249 250 249 250 246 234 215 199 214 223 212 206 204 196 194 193 186 189 196 200 191 187 195 192 191 198 198 201 207 209 223 228 215 225 234 218 231 263 263 258 261 253 196 177 163 100 143 150 155 6 43 54 60 94 134 98 68 253 250 198 148 285 250 198 192 200 201 197 192 188 187 184 178 175 174 174 176
297 295 292 290 285 274 263 257 253 247 245 245 244 243 242 233 216 202 207 217 218 212 200 196 193 187 184 183 192 200 198 194 197 195 189 194 201 200 205 210 205 218 230 220 224 233 232 258 276 249 250 252 206 171 171 164 119 101 131 102 29 18 28 40 63 103 72 3 263 234 181 148 327 261 197 193 199 191 189 191 191 191 186 179 177 176 175 177
295 294 292 288 280 270 262 256 249 243 241 240 239 234 226 221 208 198 208 213 211 202 185 191 198 187 184 187 194 198 197 197 199 193 190 195 200 203 209 213 210 216 234 232 234 243 251 272 270 244 254 222 161 150 160 169 123 98 125 111 54 13 19 30 22 52 74 300 259 193 157 136 134 243 201 206 209 187 183 188 187 189 187 182 180 179 177 178
296 293 289 281 273 266 257 253 248 241 237 234 231 223 214 215 213 207 209 212 204 190 177 192 209 203 200 198 194 195 195 196 196 193 194 197 200 205 209 211 208 211 224 224 231 255 259 257 250 245 247 185 163 159 166 194 158 121 132 100 54 10 11 14 359 37 88 229 176 124 123 134 201 232 199 204 208 192 185 184 182 182 183 182 182 181 179 178
297 293 287 278 270 263 254 250 244 235 231 228 223 217 210 210 213 210 208 203 193 188 191 215 233 221 207 202 200 197 196 198 199 199 202 202 204 210 213 209 200 197 208 210 219 251 257 271 264 237 225 185 176 177 179 189 186 169 169 101 37 24 21 353 327 44 56 242 121 93 107 132 272 284 180 187 188 182 180 176 176 176 176 179 180 180 180 179
299 293 286 275 264 255 248 245 237 228 225 222 215 213 210 209 211 209 206 204 202 208 222 236 249 234 208 203 206 198 197 206 205 202 205 205 206 210 213 212 203 200 207 213 220 220 230 271 252 207 207 194 193 201 195 188 191 207 237 325 348 251 151 263 220 134 109 297 39 68 130 142 119 99 159 176 166 166 170 168 170 175 177 176 176 177 179 181
301 294 285 272 256 246 242 240 231 221 219 216 211 212 210 210 210 204 204 209 212 222 237 241 245 235 210 205 209 200 198 207 206 202 205 204 205 208 209 213 208 205 209 217 225 221 228 249 230 212 213 193 199 219 198 183 200 238 250 210 302 262 148 126 155 162 145 63 37 121 171 178 178 187 118 123 139 151 159 160 159 168 174 172 172 176 179 182
304 296 282 268 255 242 235 231 221 214 215 213 211 214 214 211 207 202 205 211 213 221 238 239 225 217 210 209 214 212 205 205 204 206 210 210 210 211 211 214 211 207 210 216 223 224 230 249 242 239 228 201 202 215 201 198 216 243 241 219 234 164 117 108 84 72 70 67 5 169 200 257 284 250 162 123 135 145 148 151 151 156 167 171 173 176 179 182
307 297 275 265 257 237 224 219 213 211 214 212 212 216 216 214 209 207 210 214 216 216 217 221 211 200 211 214 217 217 211 207 206 210 216 218 219 218 215 219 217 211 212 217 228 230 226 249 261 242 225 222 216 204 209 213 204 207 220 208 202 342 53 118 98 18 38 46 292 322 263 280 15 197 187 138 139 154 154 149 142 144 160 171 176 178 179 182
304 290 267 259 249 228 218 214 210 212 215 216 217 218 217 215 212 213 218 220 220 218 211 213 213 210 224 228 220 216 209 209 211 212 215 218 221 220 215 221 224 221 221 222 231 236 225 242 266 240 219 231 223 188 230 236 218 210 213 200 190 251 250 184 137 316 53 49 311 322 306 277 200 183 176 151 156 172 170 159 147 147 157 165 173 178 178 181
298 281 262 261 247 225 213 210 213 218 219 218 220 219 217 218 218 220 224 222 218 217 214 213 214 220 236 234 221 215 205 205 207 208 210 213 217 217 211 213 219 225 226 220 224 232 225 228 251 240 218 221 217 207 230 231 231 236 209 204 222 232 212 198 189 203 155 123 318 333 349 297 226 209 191 178 182 186 182 177 167 164 162 158 166 174 178 182
293 270 257 263 255 231 215 212 219 221 219 219 220 219 220 222 223 224 228 224 216 213 215 217 219 225 233 233 226 220 209 206 205 204 209 211 212 216 212 208 213 224 224 216 219 227 225 221 228 232 223 212 212 222 226 213 218 229 214 213 229 227 201 200 217 250 168 174 260 282 299 285 250 228 222 199 191 191 191 190 182 176 170 163 164 169 177 185
290 270 255 256 261 247 227 222 228 222 219 222 221 220 223 223 223 226 229 226 217 214 217 220 223 226 228 231 232 225 215 213 211 208 211 211 209 214 214 207 211 225 223 218 222 221 218 215 216 222 228 218 211 220 233 212 205 215 213 209 209 202 191 197 246 272 249 214 229 179 232 270 264 257 254 219 200 196 194 195 192 183 177 174 172 169 172 181
285 266 250 250 260 255 234 227 232 222 216 221 221 220 222 221 220 222 224 223 218 215 217 219 222 226 226 228 231 228 221 217 216 213 213 213 210 214 218 213 214 219 213 216 227 219 209 208 214 224 229 220 212 217 241 246 213 204 202 195 196 204 204 203 229 242 234 244 248 176 224 260 264 274 266 236 223 207 189 194 199 196 188 186 184 180 177 180
284 271 258 256 256 247 230 232 239 229 222 226 226 226 226 222 220 220 220 222 218 213 214 219 223 225 227 229 229 227 224 220 220 221 219 219 218 220 225 222 218 218 214 219 228 223 210 209 216 225 226 220 216 221 243 260 222 195 208 202 196 209 223 215 211 209 205 235 242 233 262 255 263 280 279 268 256 232 204 198 200 204 203 199 197 193 190 190
282 276 267 263 253 240 231 233 235 234 233 235 233 233 231 224 220 222 224 224 221 217 217 221 225 225 228 233 228 222 222 222 226 230 225 222 224 224 228 222 212 217 222 222 223 223 220 216 210 212 220 224 228 232 247 252 214 199 232 233 211 207 228 225 209 204 230 245 227 215 245 242 249 281 307 326 297 247 241 223 209 207 207 206 206 203 201 200
282 275 272 274 261 243 242 241 237 238 240 240 237 234 232 226 223 227 228 223 221 221 220 220 224 224 228 235 228 220 218 217 224 232 226 223 225 226 229 222 211 215 221 218 217 216 215 216 209 202 208 216 222 228 234 233 224 227 248 246 221 210 227 231 225 227 241 247 234 212 225 233 243 268 293 322 325 277 265 244 222 211 206 207 211 209 206 206
278 272 275 281 274 254 252 253 250 246 242 240 238 234 233 229 226 226 224 219 220 223 219 219 224 224 226 231 226 221 222 217 218 226 227 226 226 225 226 220 214 217 218 216 222 219 215 226 222 206 206 211 215 224 230 225 226 235 246 253 246 235 234 231 237 243 232 236 252 233 218 225 257 270 277 286 297 289 260 244 231 222 215 213 215 213 209 209
275 271 272 276 272 264 261 261 258 251 247 243 235 232 235 233 228 224 219 219 227 227 219 219 225 225 227 229 223 224 229 221 214 221 228 228 225 225 225 217 219 229 228 229 238 230 222 235 234 217 215 216 214 221 226 221 225 230 234 249 258 251 246 234 237 243 231 227 257 247 227 229 257 269 280 275 267 260 252 249 239 229 224 220 218 216 213 212
275 274 273 271 265 257 256 258 257 254 253 247 235 230 234 232 228 225 221 222 231 232 224 223 227 226 228 227 221 223 228 222 219 225 228 229 227 227 229 225 226 235 235 236 242 232 222 230 232 221 221 223 220 221 221 220 230 235 235 246 250 246 248 247 245 246 234 230 245 238 222 239 262 273 286 278 263 255 254 252 243 233 227 221 219 221 220 219
279 278 279 280 272 259 255 260 259 255 252 247 238 234 233 230 229 229 226 225 231 234 228 227 230 230 229 227 222 222 223 221 226 230 228 230 231 227 227 230 232 237 236 235 238 232 224 229 232 225 226 235 235 231 230 233 239 247 256 261 255 246 245 248 251 249 239 239 241 227 215 249 265 272 282 282 275 270 269 267 259 252 242 228 221 221 223 222
282 279 279 282 280 269 264 266 263 255 251 247 240 237 234 231 233 233 229 225 228 234 233 231 234 234 231 229 224 223 221 218 224 231 230 229 233 230 226 227 232 238 235 231 236 235 227 229 233 229 231 243 244 240 243 244 241 247 260 270 271 263 255 256 259 254 244 243 242 233 238 261 269 273 277 283 291 296 297 293 282 273 262 244 231 229 227 225
279 274 273 276 278 275 271 269 263 254 251 248 243 241 238 237 238 236 230 225 225 232 236 234 234 234 233 234 231 230 230 225 226 233 233 229 230 232 230 229 230 235 234 232 234 235 229 231 236 234 234 242 245 242 244 246 246 252 261 269 271 263 251 251 255 258 253 246 243 249 255 258 266 273 273 278 297 310 311 306 296 284 273 259 251 247 240 236
280 275 272 273 273 273 271 267 263 257 255 254 249 245 241 241 241 234 231 231 230 235 240 238 234 232 233 237 238 239 241 239 236 239 238 234 232 233 233 235 235 232 230 231 231 233 232 230 234 235 233 239 244 243 242 245 250 254 257 260 257 248 241 243 252 265 264 249 241 247 250 251 259 268 270 272 284 297 303 303 295 286 280 270 264 256 245 246